| time (UTC) | temp F | wind direction | speed knots | gust knots | rain 1hr in | rain 24hr in | rain mn in | humidity % | barometer mb |
| 20260504020114 | 48 | 180 | 0.0 | 173.8 | 0.00 | 0.00 | 0.00 | 63 | 112.0 |
| 20260504015614 | 48 | 180 | 0.0 | 173.8 | 0.00 | 0.00 | 0.00 | 64 | 112.0 |
| 20260504015114 | 48 | 180 | 0.0 | 173.8 | 0.00 | 0.00 | 0.00 | 64 | 112.0 |
| 20260504014613 | 48 | 180 | 0.0 | 173.8 | 0.00 | 0.00 | 0.00 | 64 | 112.0 |
| 20260504014113 | 48 | 178 | 0.0 | 173.8 | 0.00 | 0.00 | 0.00 | 63 | 111.9 |
| 20260504013613 | 48 | 176 | 0.0 | 173.8 | 0.00 | 0.00 | 0.00 | 63 | 111.9 |
| 20260504013112 | 48 | 175 | 0.0 | 173.8 | 0.00 | 0.00 | 0.00 | 63 | 111.9 |
| 20260504012611 | 48 | 174 | 0.0 | 173.8 | 0.00 | 0.00 | 0.00 | 64 | 111.8 |
| 20260504012111 | 48 | 173 | 0.0 | 173.8 | 0.00 | 0.00 | 0.00 | 64 | 111.8 |
| 20260504011610 | 48 | 172 | 0.0 | 173.8 | 0.00 | 0.00 | 0.00 | 64 | 111.9 |
| 20260504011109 | 48 | 171 | 0.0 | 173.8 | 0.00 | 0.00 | 0.00 | 64 | 111.8 |
| 20260504010608 | 48 | 171 | 0.0 | 173.8 | 0.00 | 0.00 | 0.00 | 63 | 111.8 |
| 20260504010108 | 48 | 172 | 0.0 | 173.8 | 0.00 | 0.00 | 0.00 | 63 | 111.9 |
| 20260504005607 | 48 | 172 | 0.0 | 173.8 | 0.00 | 0.00 | 0.00 | 62 | 111.8 |
| 20260504005107 | 47 | 173 | 0.0 | 173.8 | 0.00 | 0.00 | 0.00 | 62 | 111.8 |
| 20260504004606 | 48 | 176 | 0.0 | 173.8 | 0.00 | 0.00 | 0.00 | 63 | 111.9 |
| 20260504004105 | 48 | 178 | 0.0 | 173.8 | 0.00 | 0.00 | 0.00 | 63 | 111.9 |
| 20260504003604 | 48 | 180 | 0.0 | 173.8 | 0.00 | 0.00 | 0.00 | 62 | 112.0 |
| 20260504003104 | 48 | 182 | 0.0 | 173.8 | 0.00 | 0.00 | 0.00 | 62 | 112.0 |
| 20260504002603 | 48 | 183 | 0.0 | 173.8 | 0.00 | 0.00 | 0.00 | 62 | 112.0 |
| 20260504002103 | 48 | 184 | 0.0 | 173.8 | 0.00 | 0.00 | 0.00 | 62 | 112.1 |
| 20260504001602 | 48 | 185 | 0.0 | 173.8 | 0.00 | 0.00 | 0.00 | 62 | 112.1 |
| 20260504001101 | 49 | 185 | 0.0 | 173.8 | 0.00 | 0.00 | 0.00 | 62 | 112.1 |
| 20260504000600 | 49 | 183 | 0.0 | 173.8 | 0.00 | 0.00 | 0.00 | 62 | 112.0 |
| 20260504000059 | 49 | 182 | 0.0 | 173.8 | 0.00 | 0.00 | 0.00 | 61 | 112.0 |
| 20260503235558 | 49 | 181 | 0.0 | 173.8 | 0.00 | 0.00 | 0.00 | 61 | 111.9 |
| 20260503235057 | 49 | 181 | 0.0 | 173.8 | 0.00 | 0.00 | 0.00 | 61 | 111.9 |
| 20260503234556 | 49 | 180 | 0.0 | 173.8 | 0.00 | 0.00 | 0.00 | 61 | 112.0 |
| 20260503233024 | 49 | 182 | 0.0 | 173.8 | 0.00 | 0.00 | 0.00 | 62 | 112.0 |
| 20260503232524 | 49 | 185 | 0.0 | 173.8 | 0.00 | 0.00 | 0.00 | 62 | 112.0 |
| 20260503232024 | 49 | 189 | 0.0 | 173.8 | 0.00 | 0.00 | 0.00 | 62 | 112.1 |
| 20260503231524 | 50 | 193 | 0.0 | 173.8 | 0.00 | 0.00 | 0.00 | 61 | 112.2 |
| 20260503231023 | 50 | 195 | 0.0 | 173.8 | 0.00 | 0.00 | 0.00 | 60 | 112.3 |
| 20260503230522 | 50 | 199 | 0.0 | 173.8 | 0.00 | 0.00 | 0.00 | 59 | 112.4 |
| 20260503230021 | 50 | 201 | 0.0 | 173.8 | 0.00 | 0.00 | 0.00 | 59 | 112.4 |
| 20260503225520 | 50 | 200 | 0.0 | 173.8 | 0.00 | 0.00 | 0.00 | 60 | 112.4 |
| 20260503224504 | 50 | 200 | 0.0 | 173.8 | 0.00 | 0.00 | 0.00 | 58 | 112.4 |
| 20260503224003 | 50 | 202 | 0.0 | 173.8 | 0.00 | 0.00 | 0.00 | 56 | 112.5 |
| 20260503223502 | 50 | 203 | 0.0 | 173.8 | 0.00 | 0.00 | 0.00 | 55 | 112.5 |
| 20260503223001 | 50 | 206 | 0.0 | 173.8 | 0.00 | 0.00 | 0.00 | 55 | 112.6 |
| 20260503222500 | 50 | 208 | 0.0 | 173.8 | 0.00 | 0.00 | 0.00 | 55 | 112.6 |
| 20260503221959 | 49 | 211 | 0.0 | 173.8 | 0.00 | 0.00 | 0.00 | 54 | 112.7 |
| 20260503221458 | 49 | 215 | 0.0 | 173.8 | 0.00 | 0.00 | 0.00 | 55 | 112.8 |
| 20260503220957 | 49 | 220 | 0.0 | 173.8 | 0.00 | 0.00 | 0.00 | 55 | 112.9 |
| 20260503215940 | 50 | 230 | 0.0 | 173.8 | 0.00 | 0.00 | 0.00 | 55 | 113.1 |
| 20260503215439 | 50 | 235 | 0.0 | 173.8 | 0.00 | 0.00 | 0.00 | 55 | 113.2 |
| 20260503213906 | 51 | 245 | 0.0 | 173.8 | 0.00 | 0.00 | 0.00 | 54 | 113.4 |
| 20260503213405 | 52 | 246 | 0.0 | 173.8 | 0.00 | 0.00 | 0.00 | 52 | 113.4 |
| 20260503212904 | 52 | 246 | 0.0 | 173.8 | 0.00 | 0.00 | 0.00 | 52 | 113.4 |
| 20260503212404 | 52 | 248 | 0.0 | 173.8 | 0.00 | 0.00 | 0.00 | 51 | 113.4 |
| 20260503211903 | 52 | 250 | 0.0 | 173.8 | 0.00 | 0.00 | 0.00 | 50 | 113.5 |
| 20260503211402 | 52 | 253 | 0.0 | 173.8 | 0.00 | 0.00 | 0.00 | 51 | 113.5 |
| 20260503210901 | 52 | 254 | 0.0 | 173.8 | 0.00 | 0.00 | 0.00 | 51 | 113.6 |
| 20260503210401 | 52 | 254 | 0.0 | 173.8 | 0.00 | 0.00 | 0.00 | 53 | 113.5 |
| 20260503205900 | 52 | 253 | 0.0 | 173.8 | 0.00 | 0.00 | 0.27 | 55 | 113.5 |
| 20260503205359 | 52 | 251 | 0.0 | 173.8 | 0.00 | 0.00 | 0.27 | 54 | 113.5 |
| 20260503204858 | 52 | 248 | 0.0 | 173.8 | 0.00 | 0.00 | 0.27 | 54 | 113.4 |
| 20260503204357 | 52 | 243 | 0.0 | 173.8 | 0.00 | 0.00 | 0.27 | 54 | 113.4 |
| 20260503203856 | 52 | 238 | 0.0 | 173.8 | 0.00 | 0.00 | 0.27 | 55 | 113.2 |
| 20260503203355 | 52 | 231 | 0.0 | 173.8 | 0.00 | 0.00 | 0.27 | 54 | 113.1 |
| 20260503202338 | 52 | 228 | 0.0 | 173.8 | 0.00 | 0.00 | 0.27 | 53 | 113.0 |
| 20260503201838 | 51 | 230 | 0.0 | 173.8 | 0.00 | 0.00 | 0.27 | 54 | 113.0 |
| 20260503201338 | 51 | 235 | 0.0 | 173.8 | 0.00 | 0.00 | 0.27 | 54 | 113.1 |
| 20260503200837 | 51 | 237 | 0.0 | 173.8 | 0.00 | 0.00 | 0.27 | 54 | 113.2 |
| 20260503200336 | 51 | 236 | 0.0 | 173.8 | 0.00 | 0.00 | 0.27 | 55 | 113.2 |
| 20260503195835 | 51 | 236 | 0.0 | 173.8 | 0.00 | 0.00 | 0.27 | 58 | 113.2 |
| 20260503195334 | 51 | 237 | 0.0 | 173.8 | 0.00 | 0.00 | 0.27 | 55 | 113.2 |
| 20260503194833 | 51 | 239 | 0.0 | 173.8 | 0.00 | 0.00 | 0.27 | 55 | 113.3 |
| 20260503194332 | 51 | 242 | 0.0 | 173.8 | 0.00 | 0.00 | 0.27 | 56 | 113.3 |
| 20260503193831 | 52 | 245 | 0.0 | 173.8 | 0.00 | 0.00 | 0.27 | 55 | 113.4 |
| 20260503193330 | 52 | 248 | 0.0 | 173.8 | 0.00 | 0.00 | 0.27 | 55 | 113.4 |
| 20260503192830 | 53 | 253 | 0.0 | 173.8 | 0.00 | 0.00 | 0.27 | 54 | 113.5 |
| 20260503192329 | 53 | 257 | 0.0 | 173.8 | 0.00 | 0.00 | 0.27 | 52 | 113.6 |
| 20260503191313 | 54 | 266 | 0.0 | 173.8 | 0.00 | 0.00 | 0.27 | 51 | 113.8 |
| 20260503190256 | 54 | 278 | 0.0 | 173.8 | 0.00 | 0.00 | 0.27 | 51 | 114.1 |
| 20260503185755 | 54 | 283 | 0.0 | 173.8 | 0.00 | 0.00 | 0.27 | 53 | 114.2 |
| 20260503185254 | 54 | 287 | 0.0 | 173.8 | 0.00 | 0.00 | 0.27 | 52 | 114.3 |
| 20260503184753 | 54 | 293 | 0.0 | 173.8 | 0.00 | 0.00 | 0.27 | 51 | 114.5 |
| 20260503184253 | 54 | 307 | 0.0 | 173.8 | 0.00 | 0.00 | 0.27 | 51 | 114.8 |
| 20260503183752 | 54 | 324 | 0.0 | 173.8 | 0.00 | 0.00 | 0.27 | 52 | 115.2 |
| 20260503183251 | 55 | 338 | 0.0 | 173.8 | 0.00 | 0.00 | 0.27 | 51 | 115.4 |
| 20260503182750 | 55 | 347 | 0.0 | 173.8 | 0.00 | 0.00 | 0.27 | 50 | 115.6 |
| 20260503182250 | 56 | 351 | 0.0 | 173.8 | 0.00 | 0.00 | 0.27 | 49 | 115.8 |
| 20260503181749 | 56 | 356 | 0.0 | 173.8 | 0.00 | 0.00 | 0.27 | 47 | 115.9 |
| 20260503181248 | 56 | 359 | 0.0 | 173.8 | 0.00 | 0.00 | 0.27 | 44 | 116.0 |
| 20260503180231 | 57 | 6 | 0.0 | 173.8 | 0.00 | 0.00 | 0.27 | 43 | 116.1 |
| 20260503175214 | 57 | 16 | 0.0 | 173.8 | 0.00 | 0.00 | 0.27 | 43 | 116.4 |
| 20260503174714 | 57 | 24 | 0.0 | 173.8 | 0.00 | 0.00 | 0.27 | 45 | 116.5 |
| 20260503174212 | 57 | 37 | 0.0 | 173.8 | 0.00 | 0.00 | 0.27 | 43 | 116.8 |
| 20260503173711 | 58 | 52 | 0.0 | 173.8 | 0.00 | 0.00 | 0.27 | 42 | 117.1 |
| 20260503173211 | 58 | 69 | 0.0 | 173.8 | 0.00 | 0.00 | 0.27 | 41 | 117.4 |
| 20260503171639 | 60 | 99 | 0.0 | 173.8 | 0.00 | 0.00 | 0.27 | 41 | 118.1 |
| 20260503171138 | 60 | 106 | 0.0 | 173.8 | 0.00 | 0.00 | 0.27 | 40 | 118.3 |
| 20260503170637 | 60 | 122 | 0.0 | 173.8 | 0.00 | 0.00 | 0.27 | 42 | 118.6 |
| 20260503170138 | 61 | 144 | 0.0 | 173.8 | 0.00 | 0.00 | 0.27 | 39 | 119.1 |
| 20260503151005 | 64 | 191 | 0.0 | 173.8 | 0.00 | 0.00 | 0.27 | 34 | 120.3 |
| 20260503150505 | 64 | 192 | 0.0 | 173.8 | 0.00 | 0.00 | 0.27 | 34 | 120.3 |
| 20260503131404 | 62 | 76 | 0.0 | 173.8 | 0.00 | 0.00 | 0.27 | 44 | 117.8 |
| 20260503130902 | 61 | 79 | 0.0 | 173.8 | 0.00 | 0.00 | 0.27 | 45 | 117.8 |
| 20260503130403 | 61 | 83 | 0.0 | 173.8 | 0.00 | 0.00 | 0.27 | 45 | 118.0 |
| 20260503110803 | 59 | 118 | 0.0 | 173.8 | 0.00 | 0.00 | 0.27 | 45 | 118.8 |
| 20260503110302 | 60 | 116 | 0.0 | 173.8 | 0.00 | 0.00 | 0.27 | 48 | 118.8 |
| 20260503100223 | 57 | 2 | 0.0 | 173.8 | 0.00 | 0.00 | 0.27 | 55 | 116.3 |
| 20260503081610 | 58 | 72 | 0.0 | 173.8 | 0.00 | 0.00 | 0.27 | 48 | 118.3 |
| 20260503081110 | 58 | 43 | 0.0 | 173.8 | 0.00 | 0.00 | 0.27 | 46 | 117.9 |
| 20260503080609 | 58 | 20 | 0.0 | 173.8 | 0.00 | 0.00 | 0.27 | 50 | 117.2 |
| 20260503080109 | 57 | 353 | 0.0 | 173.8 | 0.00 | 0.00 | 0.27 | 47 | 116.7 |
| 20260503072605 | 53 | 271 | 0.0 | 173.8 | 0.00 | 0.00 | 0.27 | 58 | 114.2 |
| 20260503072105 | 53 | 268 | 0.0 | 173.8 | 0.00 | 0.00 | 0.27 | 58 | 114.1 |
| 20260503071604 | 53 | 263 | 0.0 | 173.8 | 0.00 | 0.00 | 0.27 | 57 | 114.0 |
| 20260503071103 | 53 | 261 | 0.0 | 173.8 | 0.00 | 0.00 | 0.27 | 59 | 113.9 |
| 20260503070602 | 53 | 261 | 0.0 | 173.8 | 0.00 | 0.00 | 0.27 | 56 | 114.0 |
| 20260503055035 | 49 | 149 | 0.0 | 173.8 | 0.00 | 0.00 | 0.27 | 85 | 111.5 |
| 20260503054534 | 48 | 144 | 0.0 | 173.8 | 0.00 | 0.00 | 0.27 | 85 | 111.5 |
| 20260503054033 | 48 | 140 | 0.0 | 173.8 | 0.00 | 0.00 | 0.27 | 85 | 111.3 |
| 20260503053532 | 48 | 142 | 0.0 | 173.8 | 0.00 | 0.00 | 0.27 | 85 | 111.3 |
| 20260503053031 | 48 | 144 | 0.0 | 173.8 | 0.00 | 0.00 | 0.27 | 86 | 111.3 |
| 20260503052531 | 48 | 150 | 0.0 | 173.8 | 0.03 | 0.00 | 0.27 | 87 | 111.5 |
| 20260503052030 | 48 | 161 | 0.0 | 173.8 | 0.03 | 0.00 | 0.27 | 86 | 111.7 |
| 20260503051530 | 48 | 168 | 0.0 | 173.8 | 0.11 | 0.00 | 0.27 | 86 | 111.9 |
| 20260503051030 | 47 | 166 | 0.0 | 173.8 | 0.11 | 0.00 | 0.27 | 86 | 111.8 |
| 20260503050529 | 48 | 162 | 0.0 | 173.8 | 0.15 | 0.00 | 0.27 | 86 | 111.7 |
| 20260503050028 | 48 | 156 | 0.0 | 173.8 | 0.15 | 0.00 | 0.27 | 86 | 111.5 |
| 20260503045527 | 48 | 149 | 0.0 | 173.8 | 0.15 | 0.00 | 0.27 | 86 | 111.4 |
| 20260503043953 | 47 | 137 | 0.0 | 173.8 | 0.15 | 0.00 | 0.27 | 86 | 111.0 |
| 20260503043452 | 47 | 143 | 0.0 | 173.8 | 0.15 | 0.00 | 0.27 | 85 | 111.1 |
| 20260503042951 | 47 | 153 | 0.0 | 173.8 | 0.15 | 0.00 | 0.27 | 84 | 111.3 |
| 20260503042450 | 48 | 160 | 0.0 | 173.8 | 0.11 | 0.00 | 0.23 | 83 | 111.5 |
| 20260503041949 | 48 | 170 | 0.0 | 173.8 | 0.11 | 0.00 | 0.23 | 82 | 111.8 |
| 20260503040932 | 48 | 180 | 0.0 | 173.8 | 0.03 | 0.00 | 0.15 | 81 | 112.1 |
| 20260503040431 | 48 | 187 | 0.0 | 173.8 | 0.00 | 0.00 | 0.11 | 81 | 112.2 |
| 20260503035930 | 47 | 195 | 0.0 | 173.8 | 0.00 | 0.00 | 0.11 | 80 | 112.4 |
| 20260503035429 | 47 | 200 | 0.0 | 173.8 | 0.00 | 0.00 | 0.11 | 80 | 112.6 |
| 20260503034928 | 47 | 204 | 0.0 | 173.8 | 0.00 | 0.00 | 0.11 | 81 | 112.7 |
| 20260503034427 | 47 | 204 | 0.0 | 173.8 | 0.00 | 0.00 | 0.11 | 81 | 112.6 |
| 20260503033926 | 47 | 198 | 0.0 | 173.8 | 0.00 | 0.00 | 0.11 | 81 | 112.5 |
| 20260503033425 | 47 | 190 | 0.0 | 173.8 | 0.00 | 0.00 | 0.11 | 80 | 112.3 |
| 20260503032924 | 47 | 181 | 0.0 | 173.8 | 0.00 | 0.00 | 0.11 | 79 | 112.1 |
| 20260503032423 | 47 | 173 | 0.0 | 173.8 | 0.00 | 0.00 | 0.11 | 78 | 112.0 |
| 20260503030335 | 47 | 172 | 0.0 | 173.8 | 0.00 | 0.00 | 0.11 | 80 | 111.8 |
| 20260503025319 | 47 | 171 | 0.0 | 173.8 | 0.00 | 0.00 | 0.11 | 80 | 111.8 |
| 20260503024818 | 47 | 168 | 0.0 | 173.8 | 0.00 | 0.00 | 0.11 | 81 | 111.7 |
| 20260503024317 | 47 | 164 | 0.0 | 173.8 | 0.00 | 0.00 | 0.11 | 81 | 111.7 |
| 20260503022229 | 46 | 138 | 0.0 | 173.8 | 0.00 | 0.00 | 0.11 | 80 | 111.0 |
| 20260503021728 | 46 | 138 | 0.0 | 173.8 | 0.00 | 0.00 | 0.11 | 80 | 111.1 |
| 20260503021227 | 46 | 141 | 0.0 | 173.8 | 0.00 | 0.00 | 0.11 | 81 | 111.1 |
| 20260503020726 | 46 | 144 | 0.0 | 173.8 | 0.00 | 0.00 | 0.11 | 81 | 111.2 |